Regional Weather Roundup
Issued by NWS

Home | Current Version | Previous Version | Text Only | Print | Product List | Glossary On
Versions: 1 2 3 4 5 6 7 8 9 10 11 12 13 14 15 16 17 18 19 20 21 22 23 24 25 26 27 28 29 30 31 32 33 34 35 36 37 38 39 40 41 42 43 44 45 46 47 48 49 50
000
ASUS43 KBIS 300610
RWRND

NORTH DAKOTA REGIONAL WEATHER ROUNDUP
NATIONAL WEATHER SERVICE BISMARCK ND
100 AM CDT MON MAY 30 2016

NOTE: "FAIR" INDICATES FEW OR NO CLOUDS BELOW 12,000 FEET WITH NO
SIGNIFICANT WEATHER AND/OR OBSTRUCTIONS TO VISIBILITY.


NDZ001>003-009>011-017-300700-
NORTHWEST NORTH DAKOTA

CITY           SKY/WX    TMP DP  RH WIND       PRES   REMARKS
WILLISTON      PTCLDY    47  42  83 CALM      29.92F
6HR MIN TEMP:  47; 6HR MAX TEMP:  78;

MINOT          CLEAR     57  47  69 SW7       29.92S
MINOT AFB      CLEAR     54  44  68 S7        29.90F
$$

NDZ018>021-031>035-040>046-300700-
SOUTHWEST NORTH DAKOTA

CITY           SKY/WX    TMP DP  RH WIND       PRES   REMARKS
BISMARCK       CLEAR     56  50  80 SE6       29.96S
6HR MIN TEMP:  53; 6HR MAX TEMP:  79;

DICKINSON      CLEAR     52  46  80 S10       29.94F
GARRISON         N/A     57  47  69 CALM      29.94S
6HR MIN TEMP:  55; 6HR MAX TEMP:  76;

HETTINGER ARPT CLEAR     53  48  83 CALM      29.98F
$$

NDZ004>008-012>016-024-026-027-054-300700-
NORTHEAST NORTH DAKOTA

CITY           SKY/WX    TMP DP  RH WIND       PRES   REMARKS
GRAND FORKS    CLEAR     52  47  83 SW5       29.91S
GRND FRKS AFB  CLEAR     51  49  91 CALM      29.92S
DEVILS LAKE    CLEAR     52  48  86 SW3       29.94S
$$

NDZ022-023-025-028>030-036>039-047>053-300700-
SOUTHEAST NORTH DAKOTA

CITY           SKY/WX    TMP DP  RH WIND       PRES   REMARKS
FARGO          CLEAR     59  48  67 SE5       29.94R
6HR MIN TEMP:  56; 6HR MAX TEMP:  78;

JAMESTOWN      CLEAR     56  47  71 CALM      29.96S
$$





USA.gov is the U.S. government's official web portal to all federal, state and local government web resources and services.